CES5396 ZHCC-ZSSS

Flight info

Callsign CES5396
Flight time 1h 9m
Altitude 37100
Route RUMGU W594 EPGOS W128 FYG B208 HFE R343 SASAN
Aircraft A346/H-SDE2E3FGHIJ3J4J5M1RWXY/LB1D1

Departure

Time 2026-05-06 09:58
Airport Zhengzhou Xinzheng International Airport (ZHCC)

Arrival

Time 2026-05-06 11:07
Airport Shanghai Hongqiao International Airport (ZSSS)
Time Latitude Longitude Altitude Speed Heading
2026-05-06 09:21 34.52505 113.85068 513 ft 0 kts 292°
2026-05-06 09:46 34.52500 113.85083 513 ft 4 kts 292°
2026-05-06 09:46 34.52490 113.85113 513 ft 4 kts 292°
2026-05-06 09:46 34.52480 113.85143 513 ft 4 kts 292°
2026-05-06 09:46 34.52469 113.85173 513 ft 3 kts 292°
2026-05-06 09:47 34.52462 113.85198 513 ft 4 kts 279°
2026-05-06 09:47 34.52461 113.85217 513 ft 4 kts 262°
2026-05-06 09:47 34.52470 113.85242 513 ft 4 kts 221°
2026-05-06 09:47 34.52491 113.85256 513 ft 4 kts 201°
2026-05-06 09:48 34.52510 113.85265 513 ft 0 kts 202°
2026-05-06 09:50 34.52508 113.85264 513 ft 1 kts 202°
2026-05-06 09:51 34.52490 113.85255 513 ft 4 kts 202°
2026-05-06 09:51 34.52452 113.85236 513 ft 7 kts 202°
2026-05-06 09:51 34.52391 113.85205 513 ft 11 kts 202°
2026-05-06 09:51 34.52311 113.85165 513 ft 13 kts 202°
2026-05-06 09:52 34.52216 113.85118 513 ft 16 kts 202°
2026-05-06 09:52 34.52101 113.85061 513 ft 19 kts 202°
2026-05-06 09:52 34.51971 113.84995 513 ft 21 kts 202°
2026-05-06 09:52 34.51867 113.84928 513 ft 10 kts 253°
2026-05-06 09:53 34.51881 113.84820 513 ft 14 kts 289°
2026-05-06 09:53 34.51919 113.84703 513 ft 16 kts 292°
2026-05-06 09:53 34.51967 113.84564 513 ft 19 kts 292°
2026-05-06 09:53 34.52021 113.84405 512 ft 22 kts 292°
2026-05-06 09:54 34.52081 113.84227 512 ft 24 kts 292°
2026-05-06 09:54 34.52146 113.84035 512 ft 25 kts 292°
2026-05-06 09:54 34.52216 113.83830 512 ft 27 kts 292°
2026-05-06 09:54 34.52285 113.83628 513 ft 26 kts 292°
2026-05-06 09:55 34.52356 113.83418 513 ft 27 kts 292°
2026-05-06 09:55 34.52427 113.83207 513 ft 27 kts 292°
2026-05-06 09:55 34.52501 113.82991 513 ft 29 kts 292°
2026-05-06 09:55 34.52573 113.82779 513 ft 26 kts 292°
2026-05-06 09:56 34.52643 113.82574 513 ft 21 kts 292°
2026-05-06 09:56 34.52637 113.82491 513 ft 10 kts 226°
2026-05-06 09:56 34.52567 113.82445 513 ft 13 kts 200°
2026-05-06 09:56 34.52499 113.82493 512 ft 13 kts 127°
2026-05-06 09:57 34.52454 113.82604 512 ft 21 kts 113°
2026-05-06 09:57 34.52305 113.83039 513 ft 92 kts 112°
2026-05-06 09:57 34.51970 113.84022 508 ft 155 kts 112°
2026-05-06 09:57 34.51500 113.85434 667 ft 193 kts 114°
2026-05-06 09:58 34.50873 113.87005 1361 ft 197 kts 126°
2026-05-06 09:58 34.50050 113.88293 2294 ft 190 kts 134°
2026-05-06 09:58 34.49115 113.89493 2922 ft 200 kts 141°
2026-05-06 09:58 34.48075 113.90673 3301 ft 212 kts 142°
2026-05-06 09:59 34.46951 113.91926 3599 ft 227 kts 142°
2026-05-06 09:59 34.45752 113.93288 3888 ft 246 kts 141°
2026-05-06 09:59 34.44470 113.94768 4244 ft 263 kts 140°
2026-05-06 09:59 34.43130 113.96333 4844 ft 270 kts 140°
2026-05-06 10:00 34.41775 113.97925 5619 ft 273 kts 140°
2026-05-06 10:00 34.40483 113.99630 6409 ft 280 kts 128°
2026-05-06 10:00 34.39439 114.01665 7227 ft 284 kts 124°
2026-05-06 10:00 34.38443 114.03751 8009 ft 288 kts 124°
2026-05-06 10:01 34.37451 114.05840 8767 ft 292 kts 124°
2026-05-06 10:01 34.36423 114.07987 9422 ft 296 kts 124°
2026-05-06 10:01 34.35378 114.10157 9774 ft 299 kts 123°
2026-05-06 10:01 34.34323 114.12341 9843 ft 300 kts 123°
2026-05-06 10:02 34.33267 114.14524 9846 ft 300 kts 123°
2026-05-06 10:02 34.32178 114.16773 9850 ft 300 kts 123°
2026-05-06 10:02 34.31119 114.18954 9849 ft 300 kts 123°
2026-05-06 10:02 34.30059 114.21136 9848 ft 300 kts 123°
2026-05-06 10:03 34.28994 114.23324 9844 ft 300 kts 123°
2026-05-06 10:03 34.27936 114.25496 9851 ft 300 kts 123°
2026-05-06 10:03 34.26874 114.27674 9849 ft 300 kts 123°
2026-05-06 10:03 34.25810 114.29854 9849 ft 300 kts 123°
2026-05-06 10:04 34.24747 114.32030 9849 ft 300 kts 123°
2026-05-06 10:04 34.23684 114.34206 9848 ft 300 kts 123°
2026-05-06 10:04 34.22612 114.36370 9847 ft 299 kts 127°
2026-05-06 10:04 34.21199 114.38172 9843 ft 295 kts 147°
2026-05-06 10:05 34.19367 114.39328 10157 ft 301 kts 160°
2026-05-06 10:05 34.17404 114.40288 10830 ft 310 kts 160°
2026-05-06 10:05 34.15343 114.41281 11245 ft 328 kts 160°
2026-05-06 10:05 34.13168 114.42338 11642 ft 346 kts 160°
2026-05-06 10:06 34.10872 114.43461 12020 ft 365 kts 159°
2026-05-06 10:06 34.08462 114.44646 12383 ft 383 kts 159°
2026-05-06 10:06 34.05951 114.45887 12904 ft 395 kts 159°
2026-05-06 10:06 34.03396 114.47152 13691 ft 399 kts 160°
2026-05-06 10:07 34.00819 114.48427 14492 ft 402 kts 160°
2026-05-06 10:07 33.98210 114.49718 15260 ft 406 kts 160°
2026-05-06 10:07 33.95582 114.51014 15990 ft 410 kts 161°
2026-05-06 10:07 33.92961 114.52305 16696 ft 414 kts 161°
2026-05-06 10:08 33.90281 114.53624 17394 ft 418 kts 161°
2026-05-06 10:08 33.87573 114.54955 18069 ft 422 kts 161°
2026-05-06 10:08 33.84844 114.56297 18725 ft 426 kts 162°
2026-05-06 10:08 33.82081 114.57654 19361 ft 430 kts 162°
2026-05-06 10:09 33.79303 114.59017 19965 ft 435 kts 162°
2026-05-06 10:09 33.76484 114.60398 20550 ft 439 kts 162°
2026-05-06 10:09 33.73652 114.61786 21122 ft 443 kts 162°
2026-05-06 10:09 33.70780 114.63193 21679 ft 446 kts 162°
2026-05-06 10:10 33.67880 114.64612 22222 ft 450 kts 163°
2026-05-06 10:10 33.64965 114.66036 22741 ft 454 kts 163°
2026-05-06 10:10 33.62033 114.67469 23239 ft 457 kts 163°
2026-05-06 10:10 33.59069 114.68916 23721 ft 461 kts 163°
2026-05-06 10:11 33.56087 114.70370 24194 ft 465 kts 163°
2026-05-06 10:11 33.53080 114.71835 24652 ft 468 kts 163°
2026-05-06 10:11 33.50126 114.73577 25057 ft 479 kts 155°
2026-05-06 10:11 33.47365 114.75884 25483 ft 490 kts 146°
2026-05-06 10:12 33.44871 114.78729 25897 ft 500 kts 137°
2026-05-06 10:12 33.42565 114.81871 26316 ft 504 kts 135°
2026-05-06 10:12 33.40278 114.85087 26717 ft 508 kts 135°
2026-05-06 10:12 33.37982 114.88329 27104 ft 512 kts 135°
2026-05-06 10:13 33.35669 114.91579 27567 ft 513 kts 135°
2026-05-06 10:13 33.33350 114.94821 28148 ft 512 kts 135°
2026-05-06 10:13 33.31030 114.98049 28738 ft 511 kts 135°
2026-05-06 10:13 33.28717 115.01255 29293 ft 510 kts 135°
2026-05-06 10:14 33.26397 115.04463 29832 ft 509 kts 135°
2026-05-06 10:14 33.24077 115.07667 30357 ft 509 kts 135°
2026-05-06 10:14 33.21756 115.10866 30876 ft 509 kts 135°
2026-05-06 10:14 33.19435 115.14062 31427 ft 508 kts 135°
2026-05-06 10:15 33.17122 115.17243 31962 ft 507 kts 135°
2026-05-06 10:15 33.14809 115.20425 32516 ft 506 kts 135°
2026-05-06 10:15 33.12505 115.23593 33071 ft 504 kts 135°
2026-05-06 10:15 33.10237 115.26708 33595 ft 503 kts 134°
2026-05-06 10:16 33.07940 115.29859 34116 ft 502 kts 134°
2026-05-06 10:16 33.05645 115.33005 34623 ft 501 kts 134°
2026-05-06 10:16 33.03379 115.36161 35120 ft 501 kts 133°
2026-05-06 10:16 33.01235 115.39446 35574 ft 502 kts 129°
2026-05-06 10:17 32.99240 115.42892 35977 ft 504 kts 126°
2026-05-06 10:17 32.97411 115.46485 36326 ft 507 kts 122°
2026-05-06 10:17 32.95753 115.50231 36611 ft 510 kts 118°
2026-05-06 10:17 32.94281 115.54096 36860 ft 513 kts 114°
2026-05-06 10:18 32.91749 115.61999 36893 ft 508 kts 112°
2026-05-06 10:18 32.88926 115.69664 36886 ft 503 kts 120°
2026-05-06 10:19 32.85358 115.76802 36893 ft 500 kts 127°
2026-05-06 10:19 32.81131 115.83348 36902 ft 497 kts 133°
2026-05-06 10:20 32.76684 115.89647 36899 ft 497 kts 133°
2026-05-06 10:20 32.72244 115.95952 36901 ft 497 kts 133°
2026-05-06 10:21 32.67816 116.02255 36907 ft 497 kts 133°
2026-05-06 10:21 32.63386 116.08557 36903 ft 497 kts 133°
2026-05-06 10:22 32.58952 116.14857 36907 ft 497 kts 133°
2026-05-06 10:22 32.54521 116.21146 36910 ft 496 kts 133°
2026-05-06 10:23 32.50089 116.27461 36919 ft 496 kts 133°
2026-05-06 10:23 32.45676 116.33740 36916 ft 496 kts 133°
2026-05-06 10:24 32.41280 116.39979 36915 ft 496 kts 133°
2026-05-06 10:24 32.36855 116.46248 36916 ft 496 kts 133°
2026-05-06 10:25 32.32506 116.52596 36907 ft 497 kts 131°
2026-05-06 10:25 32.28208 116.58996 36928 ft 497 kts 131°
2026-05-06 10:26 32.23894 116.65383 36927 ft 497 kts 132°
2026-05-06 10:26 32.19562 116.71764 36916 ft 497 kts 132°
2026-05-06 10:27 32.15140 116.78034 36917 ft 497 kts 134°
2026-05-06 10:27 32.10637 116.84232 36918 ft 497 kts 134°
2026-05-06 10:28 32.06156 116.90452 36909 ft 497 kts 133°
2026-05-06 10:28 32.01672 116.96679 36929 ft 498 kts 133°
2026-05-06 10:29 31.97196 117.02882 36929 ft 498 kts 133°
2026-05-06 10:29 31.92705 117.09123 36929 ft 498 kts 133°
2026-05-06 10:30 31.88219 117.15353 36930 ft 499 kts 133°
2026-05-06 10:30 31.83737 117.21596 36927 ft 500 kts 131°
2026-05-06 10:31 31.79973 117.28506 36930 ft 504 kts 118°
2026-05-06 10:31 31.77523 117.36248 36930 ft 506 kts 104°
2026-05-06 10:32 31.76473 117.44425 36932 ft 506 kts 94°
2026-05-06 10:32 31.75957 117.52639 36930 ft 506 kts 94°
2026-05-06 10:33 31.75416 117.60950 36929 ft 506 kts 94°
2026-05-06 10:33 31.74838 117.69200 36928 ft 505 kts 94°
2026-05-06 10:34 31.74246 117.77431 36929 ft 505 kts 94°
2026-05-06 10:34 31.73646 117.85669 36930 ft 506 kts 94°
2026-05-06 10:35 31.73043 117.93866 36936 ft 506 kts 94°
2026-05-06 10:35 31.72433 118.02102 36938 ft 506 kts 94°
2026-05-06 10:36 31.71816 118.10338 36938 ft 505 kts 94°
2026-05-06 10:36 31.71235 118.18570 36940 ft 505 kts 94°
2026-05-06 10:37 31.70953 118.22676 36802 ft 505 kts 94°
2026-05-06 10:37 31.70669 118.26794 36550 ft 503 kts 94°
2026-05-06 10:37 31.70384 118.30879 36301 ft 500 kts 94°
2026-05-06 10:37 31.70098 118.34948 36044 ft 499 kts 94°
2026-05-06 10:38 31.69810 118.39022 35790 ft 501 kts 94°
2026-05-06 10:38 31.69519 118.43116 35541 ft 504 kts 94°
2026-05-06 10:38 31.69225 118.47228 35290 ft 505 kts 94°
2026-05-06 10:38 31.68930 118.51348 35042 ft 505 kts 94°
2026-05-06 10:39 31.68632 118.55471 34784 ft 505 kts 94°
2026-05-06 10:39 31.68334 118.59590 34538 ft 506 kts 94°
2026-05-06 10:39 31.68035 118.63698 34286 ft 506 kts 94°
2026-05-06 10:39 31.67733 118.67823 34038 ft 506 kts 94°
2026-05-06 10:40 31.67430 118.71950 33764 ft 507 kts 94°
2026-05-06 10:40 31.67126 118.76083 33434 ft 508 kts 94°
2026-05-06 10:40 31.66820 118.80221 32998 ft 508 kts 94°
2026-05-06 10:40 31.66617 118.82953 32641 ft 508 kts 95°
2026-05-06 10:41 31.66203 118.88501 31830 ft 509 kts 95°
2026-05-06 10:41 31.65997 118.91248 31430 ft 509 kts 95°
2026-05-06 10:41 31.65684 118.95402 30758 ft 510 kts 95°
2026-05-06 10:41 31.65264 119.00954 29826 ft 511 kts 95°
2026-05-06 10:42 31.65054 119.03741 29387 ft 512 kts 95°
2026-05-06 10:42 31.64719 119.09281 28460 ft 513 kts 93°
2026-05-06 10:42 31.64522 119.13469 27754 ft 513 kts 93°
2026-05-06 10:42 31.64337 119.17653 27162 ft 511 kts 92°
2026-05-06 10:43 31.64218 119.20455 26862 ft 507 kts 92°
2026-05-06 10:43 31.63987 119.25903 26246 ft 500 kts 92°
2026-05-06 10:43 31.63866 119.28650 25934 ft 497 kts 92°
2026-05-06 10:44 31.63503 119.36678 25033 ft 487 kts 93°
2026-05-06 10:44 31.63312 119.40670 24554 ft 483 kts 93°
2026-05-06 10:44 31.63125 119.44604 24095 ft 479 kts 93°
2026-05-06 10:44 31.62940 119.48499 23635 ft 476 kts 92°
2026-05-06 10:45 31.62756 119.52357 23180 ft 472 kts 93°
2026-05-06 10:45 31.62575 119.56144 22748 ft 468 kts 93°
2026-05-06 10:45 31.62391 119.59946 22324 ft 463 kts 93°
2026-05-06 10:45 31.62208 119.63703 21907 ft 459 kts 93°
2026-05-06 10:46 31.62022 119.67481 21472 ft 455 kts 93°
2026-05-06 10:46 31.61852 119.71126 21055 ft 451 kts 93°
2026-05-06 10:46 31.61686 119.74795 20651 ft 447 kts 93°
2026-05-06 10:46 31.61522 119.78423 20250 ft 443 kts 93°
2026-05-06 10:47 31.61358 119.82020 19836 ft 439 kts 93°
2026-05-06 10:47 31.61193 119.85586 19423 ft 435 kts 93°
2026-05-06 10:47 31.61028 119.89119 19009 ft 432 kts 93°
2026-05-06 10:47 31.60861 119.92677 18600 ft 428 kts 93°
2026-05-06 10:48 31.60699 119.96110 18202 ft 425 kts 93°
2026-05-06 10:48 31.60534 119.99561 17792 ft 422 kts 93°
2026-05-06 10:48 31.60371 120.02983 17388 ft 418 kts 93°
2026-05-06 10:48 31.60206 120.06381 17014 ft 414 kts 93°
2026-05-06 10:49 31.60043 120.09740 16644 ft 411 kts 93°
2026-05-06 10:49 31.59881 120.13081 16240 ft 408 kts 93°
2026-05-06 10:49 31.59719 120.16399 15845 ft 405 kts 93°
2026-05-06 10:49 31.59559 120.19671 15443 ft 402 kts 93°
2026-05-06 10:50 31.59397 120.22930 15035 ft 399 kts 93°
2026-05-06 10:50 31.59236 120.26168 14633 ft 396 kts 93°
2026-05-06 10:50 31.59043 120.29383 14219 ft 393 kts 96°
2026-05-06 10:50 31.58606 120.32538 13805 ft 389 kts 103°
2026-05-06 10:51 31.57889 120.35585 13414 ft 386 kts 108°
2026-05-06 10:51 31.57022 120.38558 13017 ft 383 kts 110°
2026-05-06 10:51 31.56140 120.41478 12629 ft 379 kts 110°
2026-05-06 10:51 31.55259 120.44385 12242 ft 376 kts 110°
2026-05-06 10:52 31.54390 120.47265 11856 ft 373 kts 110°
2026-05-06 10:52 31.53531 120.50124 11438 ft 370 kts 110°
2026-05-06 10:52 31.52680 120.52966 11025 ft 367 kts 110°
2026-05-06 10:52 31.51837 120.55782 10678 ft 362 kts 110°
2026-05-06 10:53 31.51018 120.58522 10593 ft 347 kts 110°
2026-05-06 10:53 31.50227 120.61164 10482 ft 334 kts 110°
2026-05-06 10:53 31.49471 120.63687 10379 ft 321 kts 110°
2026-05-06 10:53 31.48745 120.66112 10273 ft 309 kts 110°
2026-05-06 10:54 31.48046 120.68442 10180 ft 297 kts 110°
2026-05-06 10:54 31.47370 120.70692 10094 ft 288 kts 110°
2026-05-06 10:54 31.46710 120.72889 10007 ft 283 kts 110°
2026-05-06 10:54 31.46054 120.75068 9759 ft 284 kts 110°
2026-05-06 10:55 31.45398 120.77246 9441 ft 283 kts 110°
2026-05-06 10:55 31.44746 120.79412 9154 ft 280 kts 111°
2026-05-06 10:55 31.44099 120.81560 8872 ft 278 kts 111°
2026-05-06 10:55 31.43455 120.83692 8597 ft 276 kts 111°
2026-05-06 10:56 31.42816 120.85809 8312 ft 275 kts 111°
2026-05-06 10:56 31.42180 120.87913 8026 ft 273 kts 111°
2026-05-06 10:56 31.41547 120.90008 7739 ft 272 kts 111°
2026-05-06 10:56 31.40913 120.92104 7453 ft 270 kts 111°
2026-05-06 10:57 31.40369 120.94207 7133 ft 271 kts 99°
2026-05-06 10:57 31.40430 120.96408 6863 ft 272 kts 78°
2026-05-06 10:57 31.40983 120.98470 6586 ft 271 kts 72°
2026-05-06 10:57 31.41643 121.00595 6293 ft 270 kts 71°
2026-05-06 10:58 31.42289 121.02663 6006 ft 269 kts 72°
2026-05-06 10:58 31.42921 121.04729 5721 ft 268 kts 72°
2026-05-06 10:58 31.43544 121.06790 5444 ft 267 kts 73°
2026-05-06 10:58 31.44159 121.08844 5165 ft 266 kts 73°
2026-05-06 10:59 31.44727 121.10899 4888 ft 264 kts 79°
2026-05-06 10:59 31.45005 121.13032 4603 ft 260 kts 90°
2026-05-06 10:59 31.45040 121.15105 4441 ft 253 kts 93°
2026-05-06 10:59 31.45031 121.17114 4394 ft 240 kts 93°
2026-05-06 11:00 31.45020 121.19022 4337 ft 230 kts 93°
2026-05-06 11:00 31.45011 121.20895 4265 ft 229 kts 93°
2026-05-06 11:00 31.45005 121.22775 4081 ft 230 kts 93°
2026-05-06 11:00 31.45004 121.24647 3804 ft 229 kts 93°
2026-05-06 11:01 31.45003 121.26518 3535 ft 228 kts 93°
2026-05-06 11:01 31.45004 121.28374 3271 ft 227 kts 94°
2026-05-06 11:01 31.44998 121.30215 3039 ft 223 kts 98°
2026-05-06 11:01 31.44517 121.31861 2981 ft 214 kts 133°
2026-05-06 11:02 31.43320 121.32751 2982 ft 204 kts 171°
2026-05-06 11:02 31.41929 121.32761 3037 ft 194 kts 183°
2026-05-06 11:02 31.40637 121.32648 3018 ft 178 kts 181°
2026-05-06 11:02 31.39428 121.32618 2995 ft 174 kts 178°
2026-05-06 11:03 31.38211 121.32644 2998 ft 175 kts 177°
2026-05-06 11:03 31.36990 121.32694 2996 ft 176 kts 176°
2026-05-06 11:03 31.35766 121.32756 2838 ft 176 kts 176°
2026-05-06 11:03 31.34548 121.32823 2606 ft 175 kts 176°
2026-05-06 11:04 31.33330 121.32891 2377 ft 175 kts 176°
2026-05-06 11:04 31.32113 121.32959 2146 ft 175 kts 176°
2026-05-06 11:04 31.30909 121.33025 1905 ft 169 kts 176°
2026-05-06 11:04 31.29771 121.33087 1682 ft 158 kts 176°
2026-05-06 11:05 31.28711 121.33145 1456 ft 148 kts 176°
2026-05-06 11:05 31.27685 121.33203 1277 ft 147 kts 176°
2026-05-06 11:05 31.26667 121.33263 1075 ft 146 kts 177°
2026-05-06 11:05 31.25652 121.33318 900 ft 146 kts 176°
2026-05-06 11:06 31.24639 121.33379 716 ft 146 kts 176°
2026-05-06 11:06 31.23625 121.33430 503 ft 145 kts 177°
2026-05-06 11:06 31.22609 121.33485 317 ft 146 kts 177°
2026-05-06 11:06 31.21596 121.33537 119 ft 146 kts 177°
2026-05-06 11:07 31.20587 121.33586 27 ft 134 kts 177°
2026-05-06 11:07 31.19818 121.33629 27 ft 75 kts 177°
2026-05-06 11:07 31.19470 121.33639 29 ft 33 kts 185°
2026-05-06 11:07 31.19303 121.33576 28 ft 25 kts 203°
2026-05-06 11:08 31.19163 121.33497 28 ft 14 kts 209°
2026-05-06 11:08 31.19127 121.33401 27 ft 15 kts 260°
2026-05-06 11:08 31.19112 121.33263 28 ft 19 kts 266°
2026-05-06 11:08 31.19103 121.33098 27 ft 21 kts 267°
2026-05-06 11:09 31.19129 121.33028 27 ft 9 kts 324°
2026-05-06 11:09 31.19206 121.33005 27 ft 13 kts 356°
2026-05-06 11:09 31.19309 121.32999 27 ft 17 kts 358°
2026-05-06 11:09 31.19438 121.32992 27 ft 20 kts 357°
2026-05-06 11:10 31.19554 121.32980 27 ft 10 kts 329°
2026-05-06 11:10 31.19579 121.32890 27 ft 13 kts 271°
2026-05-06 11:10 31.19576 121.32766 27 ft 17 kts 267°
2026-05-06 11:10 31.19592 121.32674 27 ft 10 kts 282°
2026-05-06 11:11 31.19596 121.32597 27 ft 7 kts 269°
2026-05-06 11:11 31.19595 121.32572 28 ft 1 kts 268°
2026-05-06 11:11 31.19595 121.32566 27 ft 0 kts 268°
2026-05-06 11:11 31.19595 121.32565 27 ft 0 kts 268°
2026-05-06 11:13 31.19136 121.33464 28 ft 0 kts 250°
2026-05-06 11:13 31.22881 121.33470 377 ft 0 kts 177°
2026-05-06 11:14 31.22759 121.33476 357 ft 0 kts 176°
2026-05-06 11:14 31.22635 121.33483 323 ft 0 kts 177°
2026-05-06 11:14 31.21621 121.33536 123 ft 0 kts 177°
2026-05-06 11:14 31.20605 121.33585 27 ft 0 kts 177°
2026-05-06 11:15 31.20059 121.33615 27 ft 0 kts 177°
2026-05-06 11:15 31.23035 121.33462 403 ft 0 kts 177°
2026-05-06 11:15 31.22197 121.33508 233 ft 0 kts 177°
2026-05-06 11:16 31.21596 121.33537 121 ft 0 kts 177°
2026-05-06 11:16 31.20583 121.33586 27 ft 0 kts 177°
2026-05-06 11:16 31.19823 121.33629 27 ft 0 kts 177°
2026-05-06 11:16 31.19595 121.32565 27 ft 0 kts 268°